Ouarzazate, Morocco

6:42 PM WEST on April 30, 2017 (GMT +0100)
Ouarzazate

Weather History for GMMZ - February, 2013

Change the Weather History Date:

Sunday, February 24, 2013

  Actual Average Record
Temperature  
Mean Temperature 54 °F -  
Max Temperature 72 °F 71 °F - ()
Min Temperature 35 °F 44 °F - ()
Degree Days  
Heating Degree Days 12    
Growing Degree Days 4 (Base 50)    
Moisture  
Dew Point 9 °F    
Average Humidity 18    
Maximum Humidity 45    
Minimum Humidity 4    
Precipitation  
Precipitation 0.00 in 0.01 in - ()
Sea Level Pressure  
Sea Level Pressure 30.06 in    
Wind  
Wind Speed 4 mph ()    
Max Wind Speed 16 mph    
Max Gust Speed -    
Visibility 12.0 miles    
Events      
T = Trace of Precipitation, MM = Missing Value Source: Averaged Metar Reports

Daily Weather History Graph

Daily Weather History Graph

Search for Another Location

Airport or City:

Trip Planner

Search our weather history database for the weather conditions in past years. The results will help you decide how hot, cold, wet, or windy it might be!

Date:

Astronomy

Feb. 24, 2013 Rise Set
Actual Time 6:59 AM WET 6:22 PM WET
Civil Twilight 6:35 AM WET 6:46 PM WET
Nautical Twilight 6:07 AM WET 7:14 PM WET
Astronomical Twilight 5:39 AM WET 7:42 PM WET
Moon 5:20 PM WET (2/24) 5:46 AM WET (2/24)
Length of Visible Light 12h 11m
Length of Day
11h 22m
Waxing Gibbous, 98% of the Moon is Illuminated
Feb 24
Waxing Gibbous
Feb 25
Full
Mar 4
Last Quarter
Mar 11
New
Mar 19
First Quarter

Hourly Weather History & Observations

Time (WET) Temp. Windchill Dew Point Humidity Pressure Visibility Wind Dir Wind Speed Gust Speed Precip Events Conditions
12:00 AM 45 °F - 21 °F 25%  in 12 mi NW 5.8 mph - -  
12:00 AM 44.6 °F 41.4 °F 21.2 °F 39% 30.06 in - NW 5.8 mph - N/A   Clear
1:00 AM 44.6 °F - 21.2 °F 39% 30.04 in - SSW 2.3 mph - N/A   Clear
2:00 AM 41.0 °F 39.0 °F 21.2 °F 45% 30.04 in - North 3.5 mph - N/A   Clear
3:00 AM 43 °F - 19 °F 25%  in 12 mi Calm Calm - -  
3:00 AM 42.8 °F - 19.4 °F 39% 30.04 in - Calm Calm - N/A   Unknown
4:00 AM 42.8 °F 38.6 °F 5.0 °F 21% 30.04 in - NW 6.9 mph - N/A   Unknown
5:00 AM 42.8 °F - 12.2 °F 29% 30.04 in - Variable 2.3 mph - N/A   Clear
6:00 AM 39 °F - 12 °F 20%  in 12 mi ENE 3.5 mph - -  
6:00 AM 39.2 °F - 12.2 °F 33% 30.06 in - Variable 2.3 mph - N/A   Clear
7:00 AM 35.6 °F - 12.2 °F 38% 30.06 in - Variable 1.2 mph - N/A   Clear
8:00 AM - - - N/A% 30.09 in - Calm Calm - N/A   Clear
9:00 AM 45 °F - 12 °F 14%  in 12 mi ENE 2.3 mph - -  
9:00 AM - - - N/A% 30.12 in - Calm Calm - N/A   Clear
10:00 AM 53.6 °F - 14.0 °F 21% 30.12 in - Calm Calm - N/A   Clear
11:00 AM 59.0 °F - 24.8 °F 27% 30.12 in - Variable 1.2 mph - N/A   Clear
12:00 PM 63 °F - 3 °F 4%  in 12 mi South 1.2 mph - -  
12:00 PM 62.6 °F - 3.2 °F 9% 30.09 in - Variable 2.3 mph - N/A   Clear
1:00 PM 68.0 °F - 1.4 °F 7% 30.06 in - Variable 2.3 mph - N/A   Clear
2:00 PM 71.6 °F - -2.2 °F 5% 30.04 in - West 15.0 mph - N/A   Clear
3:00 PM 72 °F - -2 °F 4%  in 12 mi WNW 12.7 mph - -  
3:00 PM 73.4 °F - -2.2 °F 5% 30.04 in - WNW 13.8 mph - N/A   Clear
4:00 PM 71.6 °F - -2.2 °F 5% 30.01 in - WNW 9.2 mph - N/A   Clear
5:00 PM 71.6 °F - 1.4 °F 6% 30.01 in - NW 16.1 mph - N/A   Clear
6:00 PM 69 °F - 2 °F 4%  in 12 mi NW 13.8 mph - -  
6:00 PM 68.0 °F - 3.2 °F 8% 30.01 in - NW 13.8 mph - N/A   Clear
7:00 PM 64.4 °F - 5.0 °F 10% 30.04 in - NW 15.0 mph - N/A   Clear
8:00 PM 60.8 °F - 5.0 °F 11% 30.06 in - WSW 6.9 mph - N/A   Clear
9:00 PM 59 °F - 7 °F 5%  in 12 mi Calm Calm - -  
9:00 PM 59.0 °F - 5.0 °F 12% 30.06 in - Variable 1.2 mph - N/A   Clear
10:00 PM 59.0 °F - 1.4 °F 10% 30.09 in - Variable 2.3 mph - N/A   Clear
11:00 PM 55.4 °F - -0.4 °F 10% 30.06 in - SSW 4.6 mph - N/A   Clear